TimeMDT,TemperatureF,Dew PointF,Humidity,Sea Level PressureIn,VisibilityMPH,Wind Direction,Wind SpeedMPH,Gust SpeedMPH,PrecipitationIn,Events,Conditions,WindDirDegrees,DateUTC
12:53 AM,39.0,26.1,60,29.88,10.0,SW,11.5,-,N/A,,Clear,230,2014-03-17 06:53:00
1:53 AM,37.9,26.1,62,29.86,10.0,SW,6.9,-,N/A,,Clear,230,2014-03-17 07:53:00
2:53 AM,37.9,27.0,65,29.81,10.0,WSW,11.5,-,N/A,,Clear,240,2014-03-17 08:53:00
3:53 AM,39.0,28.0,65,29.76,10.0,WSW,10.4,-,N/A,,Clear,250,2014-03-17 09:53:00
4:53 AM,37.9,27.0,65,29.74,10.0,WSW,8.1,-,N/A,,Clear,250,2014-03-17 10:53:00
5:53 AM,36.0,27.0,70,29.73,10.0,WSW,8.1,-,N/A,,Clear,250,2014-03-17 11:53:00
6:53 AM,35.1,26.1,70,29.71,10.0,WSW,8.1,-,N/A,,Clear,240,2014-03-17 12:53:00
7:53 AM,37.0,27.0,67,29.69,10.0,WSW,6.9,-,N/A,,Clear,240,2014-03-17 13:53:00
8:53 AM,46.0,27.0,47,29.65,10.0,SW,9.2,-,N/A,,Clear,230,2014-03-17 14:53:00
9:53 AM,53.1,25.0,34,29.59,10.0,SW,12.7,-,N/A,,Clear,220,2014-03-17 15:53:00
10:53 AM,62.1,24.1,23,29.53,10.0,South,13.8,-,N/A,,Clear,190,2014-03-17 16:53:00
11:53 AM,69.1,19.0,15,29.46,10.0,SSW,17.3,23.0,N/A,,Clear,200,2014-03-17 17:53:00
12:53 PM,70.0,16.0,13,29.42,10.0,SW,18.4,26.5,N/A,,Clear,220,2014-03-17 18:53:00
1:53 PM,73.9,15.1,11,29.36,10.0,SSW,17.3,23.0,N/A,,Clear,200,2014-03-17 19:53:00
2:53 PM,72.0,10.0,9,29.30,10.0,South,13.8,21.9,N/A,,Clear,190,2014-03-17 20:53:00
3:53 PM,73.0,10.0,9,29.25,10.0,South,20.7,27.6,N/A,,Clear,180,2014-03-17 21:53:00
4:53 PM,73.0,6.1,7,29.21,10.0,South,18.4,29.9,N/A,,Clear,180,2014-03-17 22:53:00
5:53 PM,68.0,10.9,11,29.22,10.0,South,17.3,-,N/A,,Clear,180,2014-03-17 23:53:00
6:53 PM,62.1,16.0,17,29.25,10.0,SSW,5.8,-,N/A,,Partly Cloudy,210,2014-03-18 00:53:00
7:53 PM,60.1,24.1,25,29.28,10.0,NE,5.8,-,N/A,,Scattered Clouds,40,2014-03-18 01:53:00
8:53 PM,57.0,27.0,32,29.30,10.0,NNE,9.2,-,N/A,,Overcast,20,2014-03-18 02:53:00
9:53 PM,55.9,28.0,34,29.29,10.0,NNW,19.6,25.3,N/A,,Partly Cloudy,330,2014-03-18 03:53:00
10:53 PM,52.0,30.0,43,29.28,10.0,NW,18.4,26.5,N/A,,Partly Cloudy,320,2014-03-18 04:53:00
11:53 PM,50.0,27.0,41,29.29,10.0,NW,19.6,28.8,N/A,,Clear,320,2014-03-18 05:53:00